Meath Environmental Platform

Observations for Trim Patrick St

Time AQI Temp °C Hum % Pres Pa CO μg/m³ H₂S μg/m³ NO μg/m³ NO₂ μg/m³ O₃ μg/m³ SO₂ μg/m³ PM1 μg/m³ PM2.5 μg/m³ PM10 μg/m³
Monday 3 August 2026
04:45 1 15.4 79 38,460 0.19 0 1.91 15.59 38.02 0 4.57 7.37 8.11
04:44 1 15.4 79 38,460 0.2 0 1.94 23.15 31.27 0 4.57 8.07 8.88
04:43 1 15.4 79 38,460 0.2 0 2.02 22.17 30.4 0 5.43 9.48 10.43
04:42 1 15.4 79 38,460 0.19 0 1.93 13.47 40.67 0 6.29 9.48 10.43
04:41 1 15.4 79 38,460 0.19 0 1.87 14.06 39.53 0 6.29 9.48 10.43
04:40 1 15.4 79 38,460 0.2 0 1.91 14.99 36.89 0 4.57 9.48 10.43
04:39 1 15.4 79 38,460 0.19 0 1.87 12.99 40.48 0 5.43 8.78 9.66
04:38 1 15.4 79 38,460 0.2 0 1.83 12.58 41.14 0 5.43 9.48 10.43
04:37 1 15.4 79 38,460 0.19 0 1.84 19.86 37.28 0 4.57 9.48 10.43
04:36 1 15.4 79 38,460 0.2 0 1.91 14.46 38.4 0 5.43 8.78 9.66
04:33 1 15.4 79 38,460 0.21 0 1.81 13.81 37.34 0 4.57 8.09 8.9
04:28 1 15.4 79 38,460 0.19 0 1.96 11.12 42.67 0 5.43 8.8 9.68
04:27 1 15.4 79 38,460 0.2 0 1.89 18.82 36.65 0 5.43 9.5 10.45
04:26 1 15.4 79 38,460 0.19 0 1.92 14.56 33.04 0 3.71 8.09 8.9
04:25 1 15.4 79 38,460 0.2 0 1.79 12.21 37.24 0 3.71 7.39 8.13
04:24 1 15.5 79 38,460 0.19 0 1.69 11.76 44.77 0 6.29 10.21 11.23
04:23 1 15.4 79 38,460 0.2 0 1.69 20.83 29.47 0 4.57 8.1 8.91
04:22 1 15.5 79 38,460 0.19 0 1.77 12.65 34.68 0 4.57 8.1 8.91
04:21 1 15.5 79 38,460 0.19 0 1.72 12.93 38.47 0 4.57 8.1 8.91
04:20 1 15.4 79 38,460 0.19 0 1.76 11.77 38.37 0 4.57 8.8 9.68